Location: LDNL
(36.4545°S, 141.6685°E)
Time: 19:47:24
(UTC+10:00)

A-11 Canister half - Pass Details

Date: 03 February 2022
Orbit: 1527 x 1682 km, 47.3° (Epoch: 20 May)

Event Time Altitude Azimuth Distance (km) Brightness Sun altitude
Rises 05:30:19 0° 238° (WSW) 4,898 11.4 -15.2°
Reaches altitude 10° 05:33:34 10° 241° (WSW) 3,888 10.8 -14.7°
Maximum altitude 05:43:09 57° 316° (NW) 1,843 9.1 -13.1°
Drops below altitude 10° 05:52:22 10° 31° (NNE) 3,744 11.0 -11.5°
Sets 05:55:27 0° 35° (NE) 4,706 11.6 -11.0°
